Location: Eimen
(51.8766°N, 9.7806°E)
Time: 08:09:45
(UTC+00:00)

Envisat - Pass Details

Date: 15 August 2024
Orbit: 762 x 764 km, 98.3° (Epoch: 08 September)

Event Time Altitude Azimuth Distance (km) Brightness Sun altitude
Rises 01:57:53 0° 20° (NNE) 3,241 7.7 -16.4°
Reaches altitude 10° 02:00:23 10° 29° (NNE) 2,309 6.8 -16.1°
Maximum altitude 02:05:04 36° 96° (E) 1,199 4.3 -15.7°
Drops below altitude 10° 02:09:42 10° 162° (SSE) 2,293 5.2 -15.2°
Enters shadow 02:10:40 - 167° (SSE) 2,647 5.5 -15.1°
